STARLINK-35025

Last updated on Tue Sep 16 2025 00:02:07 GMT+0000 (Coordinated Universal Time)

1 65430U 25192AC 25258.58341435 -.01479959 00000+0 -15600-1 0 9990 2 65430 53.1593 338.0497 0001117 68.4778 193.8054 15.66413875 3627
UTC large
Height (km)
Speed (km/s)
/
Latitude / Longitude
Inclination (degrees)
Orbital Period (minutes)
Azimuth
Elevation
Range (km)
Doppler Factor

Next 0 passes for location: London (51.5072 / 0.1276)

Sorry there are no passes over London.